Zurück zum Katalog

CZ-6A DEB

AktivPO
NORAD 63390·DEBRIS·🇨🇳 China

Gestartet Aug 6, 2024 von Taiyuan Satellite Launch Center

Loading…

Nächste Überflüge (nächste 24 Stunden)

TLE

AlterndSource: Space-Track

Epoche: Sep 5, 2026, 07:17 UTC

1 63390U 24140ADM 26248.30400007  .00000610  00000-0  28138-3 0  9990
2 63390  89.0003 266.1569 0051493 293.5343  66.0442 14.19208434106813

Verfolge CZ-6A DEB in Echtzeit mit AllMySat

Download on the App Store